Content
SEND FEEDBACK

Daily
Averages
Monthly
Summary
United States of America

CASSODAY, KANSAS


Home > North America > United States > Kansas
Elevation: 1456 feet     Latitude: 38 03N     Longitude: 096 38W

WEATHER
 
SELECT A DAY
Number of Records: 197,565;   Date Range: 1/1/95 - 9/16/14
 
SHARE

PRINT THIS DATA

[ ← Previous Day ]
WEATHER ALMANAC - JANUARY 23, 2013
[ Next Day → ]
[ °C ]   °F
Weather ElementAverageHighLow
Temperature32.5 °F54 °F (2:53 pm)14 °F (5:53 am)
Dewpoint18.7 °F28 °F (11:53 am)10 °F (6:53 am)
Humidity60.5 %88 % (5:53 am)31 % (2:53 pm)
Barometer30.27 in30.42 in (11:53 pm)30.18 in (2:53 pm)
Wind Speed6.5 mph16.1 mph (8:53 pm)
Wind Gust21.9 mph (9:53 pm)
Weather ElementAverage
Visibility9.6 mi
Wind DirectionE (90 °)

Weather ElementTotal
Precipitation---
Heating Degree Days31 (Base 65)
Averaged from 23 records on January 23, 2013
WEATHER CONDITIONS BREAKOUT
WIND DIRECTION BREAKOUT
WEATHER BY HOUR - JANUARY 23, 2013
[ °C ]   °F
Local TimeTemperatureDewpointHumidityBarometerVisibilityWind DirectionWind SpeedGust SpeedPrecipitationEventsConditions
1:53 AM19.9 °F12.0 °F71 %30.29 in10.0 miCalmClear
2:53 AM17.1 °F10.9 °F77 %30.27 in10.0 miESE (110°)3.5 mphClear
3:53 AM17.1 °F10.9 °F77 %30.26 in10.0 miCalmClear
4:53 AM17.1 °F10.9 °F77 %30.25 in10.0 miSE (140°)4.6 mphClear
5:53 AM14.0 °F10.9 °F88 %30.26 in9.0 miCalmClear
6:53 AM14.0 °F10.0 °F84 %30.27 in10.0 miCalmClear
7:53 AM14.0 °F10.0 °F84 %30.27 in7.0 miSouth (190°)3.5 mphClear
8:53 AM23.0 °F17.1 °F78 %30.26 in8.0 miCalmClear
9:53 AM32.0 °F25.0 °F75 %30.26 in8.0 miSouth (190°)4.6 mphClear
10:53 AM41.0 °F27.0 °F57 %30.26 in10.0 miSW (230°)5.8 mphClear
11:53 AM46.0 °F28.0 °F50 %30.24 in9.0 miNNW (340°)5.8 mphClear
12:53 PM48.9 °F26.1 °F41 %30.21 in10.0 miCalmClear
1:53 PM51.1 °F25.0 °F36 %30.19 in10.0 miNW (310°)6.9 mphClear
2:53 PM54.0 °F24.1 °F31 %30.18 in10.0 miVariable4.6 mphClear
3:53 PM54.0 °F24.1 °F31 %30.19 in10.0 miNorth (360°)4.6 mphClear
4:53 PM51.1 °F25.0 °F36 %30.20 in10.0 miNNE (20°)8.1 mphClear
5:53 PM43.0 °F23.0 °F45 %30.26 in10.0 miNNE (20°)12.7 mphClear
6:53 PM39.0 °F21.9 °F50 %30.30 in10.0 miNNE (30°)15.0 mphClear
7:53 PM35.1 °F19.9 °F54 %30.33 in10.0 miNNE (20°)13.8 mphClear
8:53 PM32.0 °F19.0 °F59 %30.35 in10.0 miNNE (20°)16.1 mphClear
9:53 PM28.9 °F18.0 °F64 %30.38 in10.0 miNNE (20°)13.8 mph21.9 mphClear
10:53 PM28.0 °F17.1 °F63 %30.38 in10.0 miNE (40°)13.8 mph20.7 mphClear
11:53 PM26.1 °F15.1 °F63 %30.42 in10.0 miNNE (30°)11.5 mphClear
Hourly data recorded from KEMP, located miles away from Cassoday, Kansas







STORIES FROM OUR PARTNERS